User: anonymous   Login
Location: Unspecified
(0.0000°N, 0.0000°E)
Time: 08:46:05
(UTC+01:00)
Language:

Cosmos 1092 Rocket - Orbit

View from above orbital plane
View from above orbital plane
View from above satellite
View from above satellite

Ground track
Ground track

The orbit data is extracted from the following two-line orbital elements,

1 11327U 79030B   18054.58352392 -.00000009 +00000-0 -24436-4 0  9992
2 11327 082.9481 109.2118 0027484 192.9441 320.4573 13.76967732953524
Epoch (UTC): 23 February 2018 14:00:16
Eccentricity: 0.0027484
inclination: 82.9481°
perigee height: 954 km
apogee height: 995 km
right ascension of ascending node: 109.2118°
argument of perigee: 192.9441°
revolutions per day: 13.76967732
mean anomaly at epoch: 320.4573°
orbit number at epoch: 95352

The dashed part of the orbit path shows where the satellite is in the earth's shadow,  

DLR